Preview of NWS' New Version of Forecast
This preview is not operational and should not be used for support decisions.

Regional Weather Roundup (RWR)

Issued by National Weather Service (NWS)

                            
000
ASUS44 KJAN 182310
RWRMS 

MISSISSIPPI HOURLY WEATHER ROUNDUP
NATIONAL WEATHER SERVICE JACKSON MS
500 PM CST MON FEB 18 2019

NOTE: "FAIR: INDICATES FEW OR NO CLOUDS BELOW 12,000 FEET WITH NO
SIGNIFICANT WEATHER AND/OR OBSTRUCTIONS TO VISIBILITY.

MSZ001>002-007>008-010>013-018>021-025>028-034>036-190000-
NORTHWEST MISSISSIPPI
  
CITY           SKY/WX    TMP DP  RH WIND       PRES   REMARKS
BATESVILLE     FAIR      43  28  56 VRB5      30.35R                  
CLARKSDALE     CLEAR     41  30  65 N14       30.38R                  
CLEVELAND      FAIR      40  31  69 N20       30.34S WCI  31          
GREENWOOD      FAIR      44  30  57 NE13      30.33R                  
GREENVILLE     FAIR      41  29  62 NE16      30.34R                  
OLIVE BRANCH   MOCLDY    37  25  60 N12       30.37R WCI  30          
OXFORD         FAIR      41  27  56 VRB6G13   30.37S                  
TUNICA           N/A     37  30  75 N13G18    30.39R WCI  29          
WINONA         FAIR      43  31  63 N10       30.31S                  
$$

MSZ003>006-009-014>017-022>024-029>033-037>039-190000-
NORTHEAST MISSISSIPPI
  
CITY           SKY/WX    TMP DP  RH WIND       PRES   REMARKS
ABERDEEN       FAIR      43  34  70 N10G17    30.33S                  
COLUMBUS AFB   FAIR      45  33  62 N7        30.30S                  
CORINTH        FAIR      43  27  52 N12       30.36S                  
GOLDN TRIANGLE FAIR      44  34  67 N13       30.31R                  
STARKVILLE     FAIR      43  34  70 N5        30.32R                  
TUPELO         FAIR      43  29  57 N14       30.34S                  
$$

MSZ040-058-190000-
CENTRAL MISSISSIPPI
  
CITY           SKY/WX    TMP DP  RH WIND       PRES   REMARKS
JACKSON INTL   MOCLDY    51  34  52 N12       30.28R                  
JACKSON HAWKNS FAIR      52  33  48 N9        30.28R                  
MADISON        FAIR      48  32  53 N5        30.28R                  
MERIDIAN KEY   CLOUDY    53  34  48 N7        30.29R                  
MERIDIAN NAS   FAIR      51  36  56 NE3       30.30R                  
RAYMOND        FAIR      52  32  46 VRB3G12   30.27R                  
VICKSBURG VKS  CLOUDY    46  36  66 N15       30.29R                  
$$

MSZ059>079-190000-
SOUTH MISSISSIPPI
  
CITY           SKY/WX    TMP DP  RH WIND       PRES   REMARKS
HATTIESBURG    CLOUDY    54  35  48 NE12      30.22F                  
LAUREL         CLOUDY    49  38  66 N7        30.25S                  
MCCOMB         CLOUDY    54  33  45 NE9       30.20R                  
NATCHEZ        CLOUDY    48  36  63 N10       30.24R                  
PINE BELT      CLOUDY    51  42  71 NE8       30.24F                  
$$

MSZ080>082-190000-
COASTAL MISSISSIPPI
  
CITY           SKY/WX    TMP DP  RH WIND       PRES   REMARKS
BAY ST LOUIS   CLOUDY    55  37  50 NE12      30.16S                  
BILOXI         CLOUDY    56  42  60 NE10      30.16R                  
PASCAGOULA     CLOUDY    57  44  62 NE8       30.17R                  
GULFPORT       LGT RAIN  57  41  55 N9        30.16R                  
$$

LAZ007>009-015>016-023>026-190000-
NORTHEAST LOUISIANA
  
CITY           SKY/WX    TMP DP  RH WIND       PRES   REMARKS
BASTROP        FAIR      44  28  54 NE8       30.32S                  
TALLULAH/VBURG FAIR      45  35  68 N14       30.30R                  
VIDALIA        CLOUDY    49  37  63 N12G21    30.24R                  
$$